Data Viewer
| City | State | Eastern Time | Source | Temp | DewPt | RH | BP | 5 Min Precip | Wind Speed | Wind Dir | 5 Min Wind Max | 5 Min Wind Max Dir |
|---|---|---|---|---|---|---|---|---|---|---|---|---|
| Ocean City | NJ | 2026-05-08 23:04 | NCAWOS | 55 | 29.94 | 7 | SSW | |||||
| Ocean City | NJ | 2026-05-09 07:09 | NCAWOS | 57 | 29.94 | 8 | SSW | |||||
| Ocean City | NJ | 2026-05-09 05:04 | NCAWOS | 55 | 29.93 | 7 | SSW | |||||
| Ocean City | NJ | 2026-05-09 05:09 | NCAWOS | 55 | 29.93 | 9 | SSW | |||||
| Ocean City | NJ | 2026-05-09 05:14 | NCAWOS | 55 | 29.93 | 7 | SSW | |||||
| Ocean City | NJ | 2026-05-09 06:04 | NCAWOS | 55 | 29.93 | 8 | SSW | |||||
| Ocean City | NJ | 2026-05-09 06:10 | NCAWOS | 57 | 29.93 | 8 | SSW | |||||
| Ocean City | NJ | 2026-05-09 06:15 | NCAWOS | 57 | 29.93 | 7 | SSW | |||||
| Ocean City | NJ | 2026-05-09 06:20 | NCAWOS | 57 | 29.93 | 8 | SSW | |||||
| Ocean City | NJ | 2026-05-09 07:04 | NCAWOS | 57 | 29.94 | 7 | SSW | |||||
| Ocean City | NJ | 2026-05-09 07:14 | NCAWOS | 57 | 29.94 | 9 | SSW | |||||
| Ocean City | NJ | 2026-05-09 04:24 | NCAWOS | 55 | 29.93 | 8 | SSW | |||||
| Ocean City | NJ | 2026-05-09 08:09 | NCAWOS | 59 | 29.93 | 9 | SSW | |||||
| Ocean City | NJ | 2026-05-09 08:20 | NCAWOS | 59 | 29.93 | 8 | SSW | |||||
| Ocean City | NJ | 2026-05-09 08:25 | NCAWOS | 59 | 29.93 | 7 | SSW | |||||
| Ocean City | NJ | 2026-05-09 09:04 | NCAWOS | 59 | 29.93 | 10 | SSW | |||||
| Ocean City | NJ | 2026-05-09 09:09 | NCAWOS | 59 | 29.93 | 8 | SSW | |||||
| Ocean City | NJ | 2026-05-09 09:14 | NCAWOS | 59 | 29.93 | 9 | SSW | |||||
| Ocean City | NJ | 2026-05-09 10:04 | NCAWOS | 61 | 29.93 | 9 | SSW | |||||
| Ocean City | NJ | 2026-05-09 11:09 | NCAWOS | 61 | 29.93 | 8 | SSW | |||||
| Ocean City | NJ | 2026-05-09 04:30 | NCAWOS | 55 | 29.93 | 8 | SSW | |||||
| Ocean City | NJ | 2026-05-09 04:19 | NCAWOS | 55 | 29.93 | 9 | SSW | |||||
| Ocean City | NJ | 2026-05-08 23:09 | NCAWOS | 55 | 29.95 | 7 | SSW | |||||
| Ocean City | NJ | 2026-05-09 01:19 | NCAWOS | 55 | 29.94 | 6 | SW | |||||
| Ocean City | NJ | 2026-05-08 23:14 | NCAWOS | 55 | 29.95 | 8 | SSW | |||||
| Ocean City | NJ | 2026-05-08 23:19 | NCAWOS | 55 | 29.95 | 7 | SSW | |||||
| Ocean City | NJ | 2026-05-09 00:05 | NCAWOS | 55 | 29.95 | 8 | SSW | |||||
| Ocean City | NJ | 2026-05-09 00:15 | NCAWOS | 55 | 29.95 | 7 | SSW | |||||
| Ocean City | NJ | 2026-05-09 00:19 | NCAWOS | 55 | 29.95 | 9 | SSW | |||||
| Ocean City | NJ | 2026-05-09 01:04 | NCAWOS | 55 | 29.95 | 6 | SSW | |||||
| Ocean City | NJ | 2026-05-09 01:09 | NCAWOS | 55 | 29.95 | 7 | SSW | |||||
| Ocean City | NJ | 2026-05-09 01:14 | NCAWOS | 55 | 29.95 | 6 | SW | |||||
| Ocean City | NJ | 2026-05-09 02:04 | NCAWOS | 55 | 29.94 | 3 | SW | |||||
| Ocean City | NJ | 2026-05-09 04:14 | NCAWOS | 55 | 29.93 | 8 | SSW | |||||
| Ocean City | NJ | 2026-05-09 02:10 | NCAWOS | 55 | 29.94 | 5 | SSW | |||||
| Ocean City | NJ | 2026-05-09 02:25 | NCAWOS | 55 | 29.94 | 5 | SSW | |||||
| Ocean City | NJ | 2026-05-09 03:04 | NCAWOS | 55 | 29.94 | 6 | SSW | |||||
| Ocean City | NJ | 2026-05-09 03:09 | NCAWOS | 55 | 29.94 | 8 | SSW | |||||
| Ocean City | NJ | 2026-05-09 03:14 | NCAWOS | 55 | 29.94 | 8 | SSW | |||||
| Ocean City | NJ | 2026-05-09 03:19 | NCAWOS | 55 | 29.94 | 7 | SSW | |||||
| Ocean City | NJ | 2026-05-09 03:24 | NCAWOS | 55 | 29.94 | 7 | SSW | |||||
| Ocean City | NJ | 2026-05-09 04:04 | NCAWOS | 55 | 29.93 | 8 | SSW | |||||
| Ocean City | NJ | 2026-05-09 04:09 | NCAWOS | 55 | 29.93 | 9 | SSW | |||||
| Ocean City | NJ | 2026-05-09 12:04 | NCAWOS | 63 | 29.91 | 9 | SSW |
data collection created in 0.010372161865234 (queried in 0.004077) rendered in: 7.7009201049805E-5

